This is the latest recevied weather packets stored in our database for station/object K1BWE-1. If no packets are shown the sender has not sent any weather packets the latest 10 day(s).
| Time | Temp. | Humidity | Pressure | Rain* | Wind** | Luminosity | Snow |
|---|---|---|---|---|---|---|---|
| 1778109829 | 25.56° C | 22% | 1015 hPa | 0 mm | - | 409 W/m² | - |
| 1778109525 | 25.56° C | 20% | 1015.1 hPa | 0 mm | - | 421 W/m² | - |
| 1778109223 | 26.11° C | 22% | 1015 hPa | 0 mm | - | 435 W/m² | - |
| 1778108920 | 26.11° C | 20% | 1015.1 hPa | 0 mm | - | 443 W/m² | - |
| 1778108617 | 26.67° C | 20% | 1015.3 hPa | 0 mm | - | 475 W/m² | - |
| 1778108313 | 27.22° C | 19% | 1014.9 hPa | 0 mm | - | 494 W/m² | - |
| 1778108011 | 26.67° C | 23% | 1014.8 hPa | 0 mm | - | 502 W/m² | - |
| 1778107707 | 26.11° C | 23% | 1015.3 hPa | 0 mm | - | 511 W/m² | - |
| 1778107405 | 25.56° C | 23% | 1015 hPa | 0 mm | - | 534 W/m² | - |
| 1778107101 | 25° C | 21% | 1015.4 hPa | 0 mm | - | 510 W/m² | - |
| 1778106796 | 25° C | 22% | 1015.3 hPa | 0 mm | - | 527 W/m² | - |
| 1778106494 | 25.56° C | 20% | 1015.3 hPa | 0 mm | - | 547 W/m² | - |
| 1778106189 | 26.11° C | 21% | 1015.2 hPa | 0 mm | - | 570 W/m² | - |
| 1778105886 | 26.11° C | 22% | 1015.4 hPa | 0 mm | - | 553 W/m² | - |
| 1778105584 | 26.11° C | 21% | 1015.4 hPa | 0 mm | - | 570 W/m² | - |
| 1778105281 | 26.67° C | 18% | 1015.4 hPa | 0 mm | - | 592 W/m² | - |
| 1778104975 | 25.56° C | 22% | 1015.4 hPa | 0 mm | - | 589 W/m² | - |
| 1778104667 | 25.56° C | 20% | 1015.6 hPa | 0 mm | - | 598 W/m² | - |
| 1778104362 | 26.11° C | 20% | 1015.6 hPa | 0 mm | - | 594 W/m² | - |
| 1778104054 | 26.11° C | 22% | 1015.6 hPa | 0 mm | - | 588 W/m² | - |
| 1778103751 | 26.11° C | 26% | 1015.6 hPa | 0 mm | - | 651 W/m² | - |
| 1778103449 | 25.56° C | 23% | 1015.6 hPa | 0 mm | - | 652 W/m² | - |
| 1778103145 | 25° C | 21% | 1016 hPa | 0 mm | - | 641 W/m² | - |
| 1778102837 | 25.56° C | 22% | 1015.6 hPa | 0 mm | - | 696 W/m² | - |
| 1778102533 | 25° C | 22% | 1016 hPa | 0 mm | - | 734 W/m² | - |
* Rain latest hour (hover to see other rain measurements)
** Current wind speed in m/s (hover to see current wind gust speed)